| time (UTC) | temp C | wind direction | speed KPH | gust KPH | rain 1hr cm | rain 24hr cm | rain mn cm | humidity % | barometer mb |
| 20260504232155 | 23 | 135 | 0.0 | 0.0 | 0.00 | 0.00 | 0.00 | 37 | 1007.0 |
| 20260504231656 | 23 | 135 | 3.2 | 3.2 | 0.00 | 0.00 | 0.00 | 35 | 1007.0 |
| 20260504231156 | 23 | 135 | 1.6 | 3.2 | 0.00 | 0.00 | 0.00 | 35 | 1007.0 |
| 20260504230654 | 23 | 135 | 0.0 | 0.0 | 0.00 | 0.00 | 0.00 | 36 | 1007.0 |
| 20260504230155 | 23 | 135 | 0.0 | 1.6 | 0.00 | 0.00 | 0.00 | 35 | 1007.0 |
| 20260504225655 | 23 | 135 | 1.6 | 3.2 | 0.00 | 0.00 | 0.00 | 34 | 1007.0 |
| 20260504225204 | 23 | 135 | 0.0 | 1.6 | 0.00 | 0.00 | 0.00 | 34 | 1007.0 |
| 20260504224654 | 23 | 135 | 0.0 | 1.6 | 0.00 | 0.00 | 0.00 | 34 | 1007.0 |
| 20260504224154 | 23 | 135 | 0.0 | 1.6 | 0.00 | 0.00 | 0.00 | 35 | 1007.0 |
| 20260504223655 | 23 | 135 | 1.6 | 3.2 | 0.00 | 0.00 | 0.00 | 34 | 1007.0 |
| 20260504223154 | 24 | 135 | 1.6 | 3.2 | 0.00 | 0.00 | 0.00 | 34 | 1006.0 |
| 20260504222655 | 24 | 135 | 1.6 | 3.2 | 0.00 | 0.00 | 0.00 | 33 | 1007.0 |
| 20260504222155 | 24 | 135 | 0.0 | 1.6 | 0.00 | 0.00 | 0.00 | 35 | 1007.0 |
| 20260504221654 | 24 | 135 | 0.0 | 1.6 | 0.00 | 0.00 | 0.00 | 34 | 1007.0 |
| 20260504221155 | 24 | 135 | 0.0 | 1.6 | 0.00 | 0.00 | 0.00 | 34 | 1006.0 |
| 20260504220654 | 24 | 135 | 1.6 | 3.2 | 0.00 | 0.00 | 0.00 | 35 | 1007.0 |
| 20260504220157 | 24 | 135 | 3.2 | 3.2 | 0.00 | 0.00 | 0.00 | 35 | 1007.0 |
| 20260504215655 | 24 | 135 | 1.6 | 3.2 | 0.00 | 0.00 | 0.00 | 32 | 1007.0 |
| 20260504215156 | 24 | 135 | 0.0 | 1.6 | 0.00 | 0.00 | 0.00 | 34 | 1007.0 |
| 20260504214655 | 25 | 135 | 3.2 | 3.2 | 0.00 | 0.00 | 0.00 | 33 | 1007.0 |
| 20260504214155 | 25 | 135 | 3.2 | 4.8 | 0.00 | 0.00 | 0.00 | 34 | 1007.0 |
| 20260504213655 | 25 | 135 | 3.2 | 4.8 | 0.00 | 0.00 | 0.00 | 32 | 1007.0 |
| 20260504213157 | 25 | 135 | 3.2 | 3.2 | 0.00 | 0.00 | 0.00 | 32 | 1007.0 |
| 20260504212657 | 25 | 135 | 4.8 | 8.0 | 0.00 | 0.00 | 0.00 | 33 | 1006.0 |
| 20260504212155 | 25 | 135 | 0.0 | 1.6 | 0.00 | 0.00 | 0.00 | 33 | 1007.0 |
| 20260504211656 | 25 | 135 | 3.2 | 4.8 | 0.00 | 0.00 | 0.00 | 32 | 1007.0 |
| 20260504211156 | 25 | 135 | 3.2 | 4.8 | 0.00 | 0.00 | 0.00 | 32 | 1007.0 |
| 20260504210656 | 25 | 135 | 3.2 | 4.8 | 0.00 | 0.00 | 0.00 | 33 | 1007.0 |
| 20260504210154 | 25 | 135 | 3.2 | 4.8 | 0.00 | 0.00 | 0.00 | 33 | 1007.0 |
| 20260504205655 | 25 | 135 | 3.2 | 3.2 | 0.00 | 0.00 | 0.00 | 32 | 1007.0 |
| 20260504205156 | 25 | 135 | 3.2 | 3.2 | 0.00 | 0.00 | 0.00 | 33 | 1007.0 |
| 20260504204656 | 25 | 135 | 0.0 | 1.6 | 0.00 | 0.00 | 0.00 | 34 | 1007.0 |
| 20260504204155 | 25 | 135 | 3.2 | 3.2 | 0.00 | 0.00 | 0.00 | 32 | 1007.0 |
| 20260504203655 | 25 | 135 | 3.2 | 3.2 | 0.00 | 0.00 | 0.00 | 35 | 1007.0 |
| 20260504203157 | 25 | 135 | 0.0 | 1.6 | 0.00 | 0.00 | 0.00 | 32 | 1007.0 |
| 20260504202656 | 25 | 135 | 0.0 | 1.6 | 0.00 | 0.00 | 0.00 | 34 | 1007.0 |
| 20260504202156 | 25 | 113 | 1.6 | 3.2 | 0.00 | 0.00 | 0.00 | 33 | 1007.0 |
| 20260504201658 | 25 | 135 | 1.6 | 3.2 | 0.00 | 0.00 | 0.00 | 34 | 1007.0 |
| 20260504201155 | 25 | 135 | 1.6 | 3.2 | 0.00 | 0.00 | 0.00 | 34 | 1007.0 |
| 20260504200658 | 25 | 135 | 3.2 | 3.2 | 0.00 | 0.00 | 0.00 | 33 | 1007.0 |
| 20260504200155 | 25 | 135 | 3.2 | 3.2 | 0.00 | 0.00 | 0.00 | 33 | 1007.0 |
| 20260504195654 | 25 | 135 | 1.6 | 3.2 | 0.00 | 0.00 | 0.00 | 35 | 1007.0 |
| 20260504195156 | 25 | 135 | 6.4 | 8.0 | 0.00 | 0.00 | 0.00 | 33 | 1007.0 |
| 20260504194657 | 25 | 135 | 3.2 | 4.8 | 0.00 | 0.00 | 0.00 | 34 | 1007.0 |
| 20260504194156 | 25 | 135 | 4.8 | 4.8 | 0.00 | 0.00 | 0.00 | 34 | 1007.0 |
| 20260504193655 | 25 | 135 | 0.0 | 0.0 | 0.00 | 0.00 | 0.00 | 33 | 1007.0 |
| 20260504193156 | 25 | 135 | 4.8 | 8.0 | 0.00 | 0.00 | 0.00 | 32 | 1007.0 |
| 20260504192658 | 26 | 135 | 3.2 | 4.8 | 0.00 | 0.00 | 0.00 | 32 | 1007.0 |
| 20260504192154 | 26 | 135 | 0.0 | 1.6 | 0.00 | 0.00 | 0.00 | 33 | 1007.0 |
| 20260504191656 | 26 | 135 | 3.2 | 3.2 | 0.00 | 0.00 | 0.00 | 32 | 1008.0 |
| 20260504191156 | 26 | 113 | 0.0 | 0.0 | 0.00 | 0.00 | 0.00 | 30 | 1008.0 |
| 20260504190654 | 26 | 135 | 4.8 | 4.8 | 0.00 | 0.00 | 0.00 | 32 | 1008.0 |
| 20260504190159 | 26 | 135 | 3.2 | 4.8 | 0.00 | 0.00 | 0.00 | 30 | 1008.0 |
| 20260504185701 | 26 | 135 | 4.8 | 4.8 | 0.00 | 0.00 | 0.00 | 30 | 1008.0 |
| 20260504185156 | 26 | 135 | 4.8 | 4.8 | 0.00 | 0.00 | 0.00 | 29 | 1008.0 |
| 20260504184655 | 26 | 135 | 4.8 | 4.8 | 0.00 | 0.00 | 0.00 | 31 | 1008.0 |
| 20260504184156 | 26 | 113 | 1.6 | 3.2 | 0.00 | 0.00 | 0.00 | 31 | 1008.0 |
| 20260504183657 | 25 | 135 | 3.2 | 3.2 | 0.00 | 0.00 | 0.00 | 32 | 1008.0 |
| 20260504183155 | 25 | 135 | 1.6 | 3.2 | 0.00 | 0.00 | 0.00 | 32 | 1008.0 |
| 20260504182656 | 25 | 135 | 3.2 | 3.2 | 0.00 | 0.00 | 0.00 | 32 | 1008.0 |
| 20260504182157 | 25 | 135 | 4.8 | 6.4 | 0.00 | 0.00 | 0.00 | 31 | 1008.0 |
| 20260504181701 | 25 | 135 | 3.2 | 4.8 | 0.00 | 0.00 | 0.00 | 31 | 1008.0 |
| 20260504181157 | 25 | 135 | 3.2 | 3.2 | 0.00 | 0.00 | 0.00 | 31 | 1008.0 |
| 20260504180658 | 25 | 135 | 6.4 | 8.0 | 0.00 | 0.00 | 0.00 | 32 | 1008.0 |
| 20260504180157 | 25 | 135 | 3.2 | 4.8 | 0.00 | 0.00 | 0.00 | 31 | 1008.0 |
| 20260504175656 | 25 | 135 | 3.2 | 3.2 | 0.00 | 0.00 | 0.00 | 31 | 1008.0 |
| 20260504175156 | 25 | 135 | 1.6 | 3.2 | 0.00 | 0.00 | 0.00 | 30 | 1008.0 |
| 20260504174654 | 25 | 135 | 1.6 | 3.2 | 0.00 | 0.00 | 0.00 | 31 | 1008.0 |
| 20260504174157 | 25 | 135 | 3.2 | 3.2 | 0.00 | 0.00 | 0.00 | 31 | 1008.0 |
| 20260504173658 | 25 | 135 | 1.6 | 3.2 | 0.00 | 0.00 | 0.00 | 30 | 1008.0 |
| 20260504173158 | 25 | 135 | 1.6 | 3.2 | 0.00 | 0.00 | 0.00 | 32 | 1009.0 |
| 20260504172658 | 24 | 135 | 1.6 | 3.2 | 0.00 | 0.00 | 0.00 | 31 | 1009.0 |
| 20260504172157 | 25 | 135 | 4.8 | 6.4 | 0.00 | 0.00 | 0.00 | 31 | 1009.0 |
| 20260504171657 | 25 | 113 | 3.2 | 3.2 | 0.00 | 0.00 | 0.00 | 30 | 1009.0 |
| 20260504171157 | 24 | 135 | 1.6 | 3.2 | 0.00 | 0.00 | 0.00 | 30 | 1009.0 |
| 20260504170658 | 23 | 135 | 3.2 | 4.8 | 0.00 | 0.00 | 0.00 | 33 | 1009.0 |
| 20260504170158 | 23 | 135 | 3.2 | 3.2 | 0.00 | 0.00 | 0.00 | 33 | 1009.0 |
| 20260504160155 | 23 | 135 | 3.2 | 4.8 | 0.00 | 0.00 | 0.00 | 31 | 1010.0 |
| 20260504150657 | 22 | 135 | 1.6 | 3.2 | 0.00 | 0.00 | 0.00 | 37 | 1010.0 |
| 20260504150158 | 22 | 135 | 3.2 | 4.8 | 0.00 | 0.00 | 0.00 | 39 | 1010.0 |
| 20260504141156 | 18 | 135 | 0.0 | 1.6 | 0.00 | 0.00 | 0.00 | 48 | 1010.0 |
| 20260504140657 | 18 | 135 | 0.0 | 1.6 | 0.00 | 0.00 | 0.00 | 51 | 1010.0 |
| 20260504140158 | 17 | 113 | 1.6 | 3.2 | 0.00 | 0.00 | 0.00 | 51 | 1010.0 |
| 20260504130659 | 13 | 135 | 0.0 | 1.6 | 0.00 | 0.00 | 0.00 | 65 | 1010.0 |
| 20260504130157 | 13 | 135 | 0.0 | 0.0 | 0.00 | 0.00 | 0.00 | 69 | 1010.0 |
| 20260504120158 | 8 | 135 | 0.0 | 0.0 | 0.00 | 0.00 | 0.00 | 81 | 1010.0 |
| 20260504110656 | 4 | 135 | 0.0 | 0.0 | 0.00 | 0.00 | 0.00 | 88 | 1010.0 |
| 20260504110156 | 4 | 135 | 0.0 | 0.0 | 0.00 | 0.00 | 0.00 | 89 | 1010.0 |
| 20260504100154 | 4 | 135 | 0.0 | 0.0 | 0.00 | 0.00 | 0.00 | 89 | 1010.0 |
| 20260504081656 | 5 | 135 | 0.0 | 0.0 | 0.00 | 0.00 | 0.00 | 85 | 1010.0 |
| 20260504081158 | 5 | 135 | 0.0 | 0.0 | 0.00 | 0.00 | 0.00 | 85 | 1010.0 |
| 20260504080656 | 5 | 135 | 0.0 | 1.6 | 0.00 | 0.00 | 0.00 | 85 | 1010.0 |
| 20260504080155 | 5 | 135 | 1.6 | 3.2 | 0.00 | 0.00 | 0.00 | 85 | 1010.0 |
| 20260504070155 | 5 | 135 | 0.0 | 0.0 | 0.00 | 0.00 | 0.00 | 82 | 1010.0 |
| 20260504060156 | 6 | 135 | 0.0 | 0.0 | 0.00 | 0.00 | 0.00 | 78 | 1010.0 |
| 20260504050654 | 7 | 135 | 0.0 | 0.0 | 0.00 | 0.00 | 0.00 | 75 | 1010.0 |
| 20260504050156 | 7 | 135 | 0.0 | 0.0 | 0.00 | 0.00 | 0.00 | 74 | 1010.0 |
| 20260504045656 | 7 | 135 | 0.0 | 0.0 | 0.00 | 0.00 | 0.00 | 73 | 1010.0 |
| 20260504045154 | 7 | 135 | 0.0 | 0.0 | 0.00 | 0.00 | 0.00 | 74 | 1010.0 |
| 20260504044655 | 7 | 135 | 0.0 | 0.0 | 0.00 | 0.00 | 0.00 | 73 | 1010.0 |
| 20260504044155 | 7 | 135 | 0.0 | 0.0 | 0.00 | 0.00 | 0.00 | 74 | 1010.0 |
| 20260504043654 | 7 | 135 | 0.0 | 0.0 | 0.00 | 0.00 | 0.00 | 73 | 1010.0 |
| 20260504043155 | 7 | 135 | 0.0 | 0.0 | 0.00 | 0.00 | 0.00 | 75 | 1010.0 |
| 20260504042654 | 7 | 135 | 0.0 | 0.0 | 0.00 | 0.00 | 0.00 | 76 | 1010.0 |
| 20260504042154 | 7 | 135 | 0.0 | 0.0 | 0.00 | 0.00 | 0.00 | 75 | 1010.0 |
| 20260504041658 | 6 | 135 | 0.0 | 0.0 | 0.00 | 0.00 | 0.00 | 75 | 1010.0 |
| 20260504041155 | 6 | 135 | 0.0 | 0.0 | 0.00 | 0.00 | 0.00 | 76 | 1010.0 |
| 20260504040655 | 6 | 135 | 0.0 | 0.0 | 0.00 | 0.00 | 0.00 | 76 | 1010.0 |
| 20260504040155 | 6 | 135 | 0.0 | 0.0 | 0.00 | 0.00 | 0.00 | 77 | 1010.0 |
| 20260504035654 | 6 | 135 | 0.0 | 0.0 | 0.00 | 0.00 | 0.00 | 77 | 1010.0 |
| 20260504035156 | 6 | 135 | 0.0 | 0.0 | 0.00 | 0.00 | 0.00 | 76 | 1010.0 |
| 20260504034656 | 7 | 135 | 0.0 | 0.0 | 0.00 | 0.00 | 0.00 | 76 | 1010.0 |
| 20260504034154 | 7 | 135 | 0.0 | 0.0 | 0.00 | 0.00 | 0.00 | 75 | 1010.0 |
| 20260504033654 | 7 | 135 | 0.0 | 0.0 | 0.00 | 0.00 | 0.00 | 75 | 1010.0 |
| 20260504033154 | 7 | 135 | 0.0 | 0.0 | 0.00 | 0.00 | 0.00 | 76 | 1010.0 |
| 20260504032654 | 7 | 135 | 0.0 | 0.0 | 0.00 | 0.00 | 0.00 | 75 | 1010.0 |
| 20260504032155 | 7 | 135 | 0.0 | 0.0 | 0.00 | 0.00 | 0.00 | 75 | 1010.0 |
| 20260504031656 | 7 | 135 | 0.0 | 0.0 | 0.00 | 0.00 | 0.00 | 74 | 1010.0 |
| 20260504031155 | 7 | 135 | 0.0 | 0.0 | 0.00 | 0.00 | 0.00 | 74 | 1010.0 |
| 20260504030655 | 7 | 135 | 0.0 | 0.0 | 0.00 | 0.00 | 0.00 | 73 | 1010.0 |
| 20260504030154 | 7 | 135 | 0.0 | 0.0 | 0.00 | 0.00 | 0.00 | 73 | 1010.0 |
| 20260504025655 | 7 | 135 | 0.0 | 0.0 | 0.00 | 0.00 | 0.00 | 73 | 1010.0 |
| 20260504025154 | 7 | 135 | 0.0 | 0.0 | 0.00 | 0.00 | 0.00 | 72 | 1010.0 |
| 20260504024655 | 7 | 135 | 0.0 | 0.0 | 0.00 | 0.00 | 0.00 | 71 | 1010.0 |
| 20260504024155 | 8 | 135 | 0.0 | 0.0 | 0.00 | 0.00 | 0.00 | 71 | 1010.0 |
| 20260504023654 | 8 | 135 | 0.0 | 0.0 | 0.00 | 0.00 | 0.00 | 70 | 1010.0 |
| 20260504023154 | 8 | 135 | 0.0 | 0.0 | 0.00 | 0.00 | 0.00 | 69 | 1010.0 |
| 20260504022655 | 8 | 135 | 0.0 | 0.0 | 0.00 | 0.00 | 0.00 | 69 | 1010.0 |
| 20260504022154 | 8 | 135 | 0.0 | 0.0 | 0.00 | 0.00 | 0.00 | 68 | 1010.0 |
| 20260504021206 | 8 | 135 | 0.0 | 0.0 | 0.00 | 0.00 | 0.00 | 68 | 1010.0 |
| 20260504020654 | 9 | 135 | 0.0 | 0.0 | 0.00 | 0.00 | 0.00 | 66 | 1010.0 |
| 20260504020154 | 9 | 135 | 0.0 | 0.0 | 0.00 | 0.00 | 0.00 | 66 | 1010.0 |
| 20260504015654 | 9 | 135 | 0.0 | 0.0 | 0.00 | 0.00 | 0.00 | 65 | 1010.0 |
| 20260504015155 | 9 | 135 | 0.0 | 0.0 | 0.00 | 0.00 | 0.00 | 64 | 1010.0 |
| 20260504014655 | 10 | 135 | 0.0 | 0.0 | 0.00 | 0.00 | 0.00 | 63 | 1010.0 |
| 20260504014155 | 10 | 135 | 0.0 | 0.0 | 0.00 | 0.00 | 0.00 | 62 | 1010.0 |
| 20260504013654 | 10 | 135 | 0.0 | 0.0 | 0.00 | 0.00 | 0.00 | 60 | 1010.0 |
| 20260504013155 | 10 | 135 | 0.0 | 0.0 | 0.00 | 0.00 | 0.00 | 60 | 1010.0 |
| 20260504012654 | 10 | 135 | 0.0 | 0.0 | 0.00 | 0.00 | 0.00 | 59 | 1010.0 |
| 20260504012154 | 10 | 135 | 0.0 | 0.0 | 0.00 | 0.00 | 0.00 | 60 | 1010.0 |
| 20260504011654 | 10 | 135 | 0.0 | 0.0 | 0.00 | 0.00 | 0.00 | 58 | 1010.0 |
| 20260504011155 | 10 | 135 | 0.0 | 0.0 | 0.00 | 0.00 | 0.00 | 56 | 1010.0 |
| 20260504010654 | 11 | 135 | 0.0 | 0.0 | 0.00 | 0.00 | 0.00 | 55 | 1010.0 |
| 20260504010154 | 11 | 135 | 0.0 | 0.0 | 0.00 | 0.00 | 0.00 | 54 | 1010.0 |
| 20260504005655 | 11 | 135 | 0.0 | 0.0 | 0.00 | 0.00 | 0.00 | 53 | 1010.0 |
| 20260504005155 | 11 | 135 | 0.0 | 0.0 | 0.00 | 0.00 | 0.00 | 53 | 1009.0 |
| 20260504004657 | 11 | 135 | 0.0 | 0.0 | 0.00 | 0.00 | 0.00 | 51 | 1009.0 |
| 20260504004154 | 12 | 135 | 0.0 | 0.0 | 0.00 | 0.00 | 0.00 | 50 | 1009.0 |
| 20260504003654 | 12 | 135 | 0.0 | 0.0 | 0.00 | 0.00 | 0.00 | 48 | 1009.0 |
| 20260504003154 | 12 | 135 | 0.0 | 0.0 | 0.00 | 0.00 | 0.00 | 48 | 1009.0 |
| 20260504002654 | 12 | 135 | 0.0 | 0.0 | 0.00 | 0.00 | 0.00 | 48 | 1009.0 |
| 20260504002154 | 13 | 135 | 0.0 | 0.0 | 0.00 | 0.00 | 0.00 | 47 | 1009.0 |
| 20260504001654 | 13 | 135 | 0.0 | 0.0 | 0.00 | 0.00 | 0.00 | 45 | 1009.0 |
| 20260504001155 | 13 | 135 | 0.0 | 0.0 | 0.00 | 0.00 | 0.00 | 45 | 1009.0 |
| 20260504000654 | 13 | 135 | 0.0 | 0.0 | 0.00 | 0.00 | 0.00 | 44 | 1009.0 |
| 20260504000154 | 14 | 135 | 0.0 | 0.0 | 0.00 | 0.00 | 0.00 | 44 | 1009.0 |
| 20260503235654 | 14 | 135 | 0.0 | 0.0 | 0.00 | 0.00 | 0.00 | 42 | 1009.0 |
| 20260503235155 | 15 | 135 | 0.0 | 0.0 | 0.00 | 0.00 | 0.00 | 41 | 1009.0 |
| 20260503234654 | 15 | 135 | 0.0 | 0.0 | 0.00 | 0.00 | 0.00 | 39 | 1009.0 |
| 20260503234201 | 15 | 135 | 0.0 | 0.0 | 0.00 | 0.00 | 0.00 | 36 | 1009.0 |
| 20260503233654 | 16 | 135 | 0.0 | 0.0 | 0.00 | 0.00 | 0.00 | 35 | 1009.0 |
| 20260503233154 | 16 | 135 | 0.0 | 1.6 | 0.00 | 0.00 | 0.00 | 32 | 1009.0 |
| 20260503232654 | 16 | 135 | 0.0 | 0.0 | 0.00 | 0.00 | 0.00 | 33 | 1009.0 |